Lihue, HI

1:37 PM HST on September 20, 2019 (GMT -1000)
Lihue

Weather History for PHLI - August, 2019

Change the Weather History Date:

Sunday, August 25, 2019

  Actual Average Record
Temperature  
Mean Temperature 86 °F 80 °F  
Max Temperature 91 °F 85 °F 91 °F (2019)
Min Temperature 80 °F 75 °F 69 °F (2006)
Degree Days  
Heating Degree Days 0 0  
Month to date heating degree days 0 0  
Since 1 June heating degree days 0 0  
Since 1 July heating degree days 0 0  
Cooling Degree Days 21 15  
Month to date cooling degree days 449 374  
Year to date cooling degree days 2735 2446  
Since 1 June cooling degree days 1370 1207  
Growing Degree Days 36 (Base 50)    
Moisture  
Dew Point 73 °F    
Average Humidity 68    
Maximum Humidity 82    
Minimum Humidity 51    
Precipitation  
Precipitation 0.02 in 0.06 in 0.95 in (2018)
Month to date precipitation 1.53 1.76  
Year to date precipitation 17.50 21.08  
Sea Level Pressure  
Sea Level Pressure 30.00 in    
Wind  
Wind Speed 17 mph (ENE)    
Max Wind Speed 23 mph    
Max Gust Speed 28 mph    
Visibility 10 miles    
Events      
T = Trace of Precipitation, MM = Missing Value Source: NWS Daily Summary

Daily Weather History Graph

Daily Weather History Graph

Search for Another Location

Airport or City:

Astronomy

Aug. 25, 2019 Rise Set
Actual Time 6:18 AM HST 7:00 PM HST
Civil Twilight 5:55 AM HST 7:23 PM HST
Nautical Twilight 5:28 AM HST 7:49 PM HST
Astronomical Twilight 5:01 AM HST 8:17 PM HST
Moon 1:24 AM HST (8/25) 3:08 PM HST (8/25)
Length of Visible Light 13h 27m
Length of Day
12h 41m
Waning Crescent, 27% of the Moon is Illuminated
Aug 25
Waning Crescent
Aug 30
New
Sep 5
First Quarter
Sep 13
Full
Sep 21
Last Quarter

Hourly Weather History & Observations

Time (HST) Temp. Heat Index Dew Point Humidity Pressure Visibility Wind Dir Wind Speed Gust Speed Precip Events Conditions
12:53 AM 82.0 °F 87.4 °F 73.0 °F 74% 30.02 in 10.0 mi ENE 18.4 mph - N/A   Mostly Cloudy
1:53 AM 81.0 °F 86.7 °F 75.0 °F 82% 30.01 in 10.0 mi ENE 13.8 mph - 0.02 in   Overcast
2:53 AM 81.0 °F 85.8 °F 73.0 °F 77% 29.99 in 10.0 mi East 17.3 mph - N/A   Partly Cloudy
3:53 AM 81.0 °F 85.8 °F 73.0 °F 77% 29.99 in 10.0 mi ENE 16.1 mph - N/A   Partly Cloudy
4:53 AM 82.0 °F 87.4 °F 73.0 °F 74% 29.99 in 10.0 mi ENE 15.0 mph - N/A   Mostly Cloudy
5:13 AM 82.0 °F 87.4 °F 73.0 °F 74% 30.00 in 10.0 mi ENE 15.0 mph - N/A   Overcast
5:53 AM 82.0 °F 87.4 °F 73.0 °F 74% 29.99 in 10.0 mi ENE 17.3 mph - N/A   Overcast
6:53 AM 82.0 °F 87.4 °F 73.0 °F 74% 30.00 in 10.0 mi ENE 19.6 mph - N/A   Overcast
7:53 AM 84.0 °F 89.6 °F 72.0 °F 67% 30.02 in 10.0 mi ENE 20.7 mph - N/A   Partly Cloudy
8:53 AM 86.0 °F 93.0 °F 73.0 °F 65% 30.03 in 10.0 mi ENE 18.4 mph - N/A   Clear
9:53 AM 87.1 °F 93.6 °F 72.0 °F 61% 30.03 in 10.0 mi NE 18.4 mph - N/A   Partly Cloudy
10:53 AM 89.1 °F 96.0 °F 72.0 °F 57% 30.03 in 10.0 mi NE 16.1 mph - N/A   Scattered Clouds
11:53 AM 89.1 °F 96.0 °F 72.0 °F 57% 30.02 in 10.0 mi ENE 17.3 mph - N/A   Scattered Clouds
12:53 PM 89.1 °F 97.0 °F 73.0 °F 59% 30.00 in 10.0 mi ENE 17.3 mph - N/A   Partly Cloudy
1:53 PM 89.1 °F 97.0 °F 73.0 °F 59% 29.99 in 10.0 mi ENE 18.4 mph - N/A   Partly Cloudy
2:53 PM 89.1 °F 96.0 °F 72.0 °F 57% 29.97 in 10.0 mi NE 19.6 mph - N/A   Partly Cloudy
3:53 PM 87.1 °F 94.5 °F 73.0 °F 63% 29.97 in 10.0 mi NE 18.4 mph - N/A   Scattered Clouds
4:53 PM 87.1 °F 94.5 °F 73.0 °F 63% 29.97 in 10.0 mi NE 18.4 mph - N/A   Partly Cloudy
5:53 PM 84.9 °F 90.7 °F 72.0 °F 65% 29.98 in 10.0 mi NE 15.0 mph - N/A   Partly Cloudy
6:53 PM 82.9 °F 88.0 °F 72.0 °F 69% 29.99 in 10.0 mi ENE 17.3 mph - N/A   Clear
7:53 PM 82.9 °F 88.0 °F 72.0 °F 69% 30.01 in 10.0 mi ENE 18.4 mph - N/A   Partly Cloudy
8:53 PM 82.9 °F 88.8 °F 73.0 °F 72% 30.02 in 10.0 mi ENE 18.4 mph - N/A   Mostly Cloudy
9:53 PM 82.0 °F 86.7 °F 72.0 °F 71% 30.03 in 10.0 mi NE 17.3 mph - N/A   Clear
10:53 PM 82.9 °F 88.8 °F 73.0 °F 72% 30.02 in 10.0 mi NE 20.7 mph - N/A   Scattered Clouds
11:53 PM 82.0 °F 86.7 °F 72.0 °F 71% 30.01 in 10.0 mi NE 17.3 mph - N/A   Scattered Clouds